Location: Freiburg+im+Breisgau
(48.0359°N, 7.8195°E)
Time: 06:03:42
(UTC+02:00)

Envisat - Visible Passes

Search period start: 19 July 2018 00:00
Search period end: 29 July 2018 00:00
Orbit: 764 x 766 km, 98.2° (Epoch: 18 July)

Date Brightness Start Highest point End Pass type
(mag) Time Alt. Az. Time Alt. Az. Time Alt. Az.
20 Jul 5.8 22:11:56 10° WSW 22:14:19 13° W 22:16:42 10° WNW visible
23 Jul 5.7 21:59:49 10° SW 22:03:00 17° W 22:06:11 10° NW visible
26 Jul 5.6 21:47:58 10° SW 21:51:42 20° W 21:55:27 10° NW visible
28 Jul 5.9 22:15:41 10° WSW 22:17:37 12° W 22:19:33 10° WNW visible
